{"data":{"norad_id":62081,"intl_designator":"2024-219A","name":"KINEIS-5C","alt_names":[],"object_type":"PAYLOAD","status":"ACTIVE","operator":null,"country":"FR","launch_date":"2024-11-25","launch_site_code":"RLLB","launch_vehicle":null,"mission":null,"orbit_class":"UNKNOWN","rcs_meters":null,"size_class":null,"mass_kg":null,"dimensions":null,"purposes":[],"wikipedia_slug":null,"has_3d_model":false,"image_url":null,"decayed_at":null,"tle_current":{"epoch":"2026-05-25T03:44:48.899328Z","epoch_age_seconds":64663,"freshness":"FRESH","line1":"1 62081U 24219A   26145.15612152  .00000507  00000+0  87945-4 0  9994","line2":"2 62081  97.9020 304.6522 0004154  17.9304 342.2049 14.72291751 80366","mean_motion":14.72291751,"eccentricity":0.0004154,"inclination_deg":97.902,"raan_deg":304.6522,"arg_perigee_deg":17.9304,"mean_anomaly_deg":342.2049,"bstar":8.7945e-5,"rev_number":8036,"period_min":97.806701628392,"perigee_km":650.84037446217,"apogee_km":656.68247567372,"semimajor_km":7031.8984250679,"source":"CELESTRAK","updated_at":"2026-05-25T13:38:02.756914Z"}}}